Regional Weather Roundup
Issued by NWS Jackson, KY

Home | Current Version | Previous Version | Graphics & Text | Print | Product List | Glossary On
Versions: 1 2 3 4 5 6 7 8 9 10 11 12 13 14 15 16 17 18 19 20 21 22 23 24 25 26 27 28 29 30 31 32 33 34 35 36 37 38 39 40 41 42 43 44 45 46 47 48 49 50
000
ASUS43 KJKL 050710
RWRJKL

EAST KENTUCKY HOURLY WEATHER ROUNDUP
NATIONAL WEATHER SERVICE JACKSON KY
300 AM EDT SAT SEP 05 2015

NOTE: "FAIR" INDICATES FEW OR NO CLOUDS BELOW 12,000 FEET WITH
NO SIGNIFICANT WEATHER AND/OR OBSTRUCTIONS TO VISIBILITY.

* THESE REPORTS ARE NOT UNDER NWS QUALITY CONTROL AND MAY NOT
  REPORT WEATHER SUCH AS PRECIPITATION AND FOG.

KYZ079-080-083-085-087-088-110-112-115-119-120-050800
...EASTERN KENTUCKY...

CITY           SKY/WX    TMP DP  RH WIND       PRES   REMARKS
JACKSON        CLEAR     70  64  81 CALM      30.12F
LONDON         CLEAR     72  65  78 N6        30.11S
SOMERSET*      PTCLDY    70  64  83 CALM      30.10F
MONTICELLO*    CLEAR     71  71 100 CALM      30.12S FOG
WILLIAMSBURG*  CLEAR     63  63 100 CALM      30.10
MIDDLESBORO*   CLEAR     67  66  97 CALM      30.11S
HARLAN APT*      N/A     66  66 100 MISG      30.13S
HAZARD APT*    SUNNY     68  68 100 CALM      30.11F FOG
BLACK MTN*       N/A     68  61  77 E1          N/A
PIKEVILLE APT* CLEAR     68  68 100 NE3       30.13S FOG
BIG SANDY*     MOSUNNY   69  68  98 E3        30.12F
MOREHEAD APT*  PTSUNNY   68  63  83 SE5       30.11F
$$

KYZ035-036-041-042-044-050-067-078-099-050800
...CENTRAL KENTUCKY...

CITY           SKY/WX    TMP DP  RH WIND       PRES   REMARKS
MT STERLING*   PTCLDY   N/A N/A N/A CALM      30.11S
FLEMING/MASON* CLEAR     66  63  88 SW3       30.10R
DANVILLE*      CLEAR     68  63  83 CALM      30.11F
RICHMOND*      CLEAR     68  63  83 CALM      30.09F
LEXINGTON      PTCLDY    69  62  78 S5        30.09S
FRANKFORT      CLEAR     70  63  78 CALM      30.08S
$$

KYZ091>093-OHZ055-061-077-WVZ005-015-034-035-042-050800
...SOUTHERN OHIO/WEST VIRGINIA...

CITY           SKY/WX    TMP DP  RH WIND       PRES   REMARKS
COVINGTON      PTCLDY    67  64  90 CALM      30.08F
COLUMBUS       PTCLDY    64  64 100 E3        30.10F
DAYTON         PTCLDY    61  61 100 E8        30.11S
WILMINGTON     PTCLDY    63  61  93 CALM      30.09F
HUNTINGTON     PTCLDY    67  66  97 CALM      30.10S
CHARLESTON     PTCLDY    69  68  96 CALM      30.12R FOG
PINEVILLE*     CLOUDY    64  64 100 MISG      30.21S FOG
BECKLEY        CLEAR     64  62  93 CALM      30.20S FOG
BLUEFIELD      PTCLDY    69  62  78 E7        30.21F
$$

VAZ002-007-008-TNZ017-027-036-066-071-050800
...SOUTHWEST VIRGINIA/EAST TENNESSEE...

CITY           SKY/WX    TMP DP  RH WIND       PRES   REMARKS
WISE*          CLEAR     66  64  94 CALM      30.20R
JONESVILLE*    SUNNY     64  64 100 CALM      30.14S FOG
ABINGDON*      CLEAR     69  61  76 E5        30.16F
BRISTOL        PTCLDY    68  63  84 CALM      30.13S
KNOXVILLE      PTCLDY    71  68  90 CALM      30.06S
OAK RIDGE      CLEAR     72  67  84 CALM      30.08S
CROSSVILLE     CLEAR     67  64  90 CALM      30.12F FOG
NASHVILLE      CLEAR     74  68  81 CALM      30.04F
$$

...KEY TO REMARKS...
VSB - VISIBILITY IN MILES
WCI - WIND CHILL INDEX
HX  - HEAT INDEX

$$



USA.gov is the U.S. government's official web portal to all federal, state and local government web resources and services.